(679) Pax
ephemeris date magn radius delta ra dec elong phase
Today24 Aug 202615.53.386 AU4.055 AU13h06m+14°50'43.0°11.8°
Opposition23 May 202713.83.055 AU2.124 AU16h23m+06°51'151.9°9.0°
(679) Pax - 2026-08-24
astro.vanbuitenen.nl


 
-1 year
-1 month
-1 day
Now
+1 day
+1 month
+1 year

The interactive orbit chart above shows the body's path through the solar system and its position at the given date. Green and blue lines are shown perpendicular to the ecliptic plane: Green if the path is above the ecliptic plane, blue if it is below. (Left-click and drag to rotate the view; Right-click and drag to move the view; Use scroll wheel to zoom in our out.)

The orbital elements of Pax are:

            e (Eccentricity)                : 0.3102645
            a (Semimajor axis)              : 2.5852735
            i (Inclination)                 : 24.41748
            Ω (Longitude of ascending node) : 112.07457
            ω (Argument of perihelion)      : 266.98668
            M (Mean anomaly)                : 165.94992
            Epoch                           : 2026 Jun 09

            L (Longitude of perihelion)     : 198.76589
            B (Latitude of perihelion)      : -24.38152
            P (Orbital period in years)     : 4.16            
        

The light curve chart below shows the estimated development of the minor planet's magnitude.


The all-sky chart below shows the path of the minor planet over the same period as the light curve. The current position is marked yellow.





The following chart shows the path of the minor planet in the next few days. The field of view is optimized for (~10x50) binoculars and finderscopes.




Ephemerides:
Date       Time       RA (2000)    DEC (2000)    delta   radius  elong  phase   PA    magn
2026-08-24 00:00 UT   13 06 32.2   +14 50 57     4.055    3.386   43.0   11.8    91   15.5 
2026-08-24 16:59 UT   13 07 16.8   +14 44 12     4.060    3.386   42.6   11.7    90   15.5 
2026-08-25 00:00 UT   13 07 35.3   +14 41 24     4.063    3.386   42.4   11.6    90   15.5 
2026-08-26 00:00 UT   13 08 38.6   +14 31 52     4.071    3.386   41.9   11.5    90   15.5 
2026-08-27 00:00 UT   13 09 42.3   +14 22 22     4.079    3.386   41.3   11.4    89   15.5 
2026-08-28 00:00 UT   13 10 46.2   +14 12 52     4.087    3.386   40.7   11.2    89   15.5 
2026-08-29 00:00 UT   13 11 50.5   +14 03 24     4.094    3.386   40.2   11.1    88   15.5 
2026-08-30 00:00 UT   13 12 55.1   +13 53 57     4.102    3.385   39.6   11.0    88   15.5 
2026-08-31 00:00 UT   13 13 60.0   +13 44 31     4.109    3.385   39.0   10.8    87   15.5 
2026-09-01 00:00 UT   13 15 05.1   +13 35 07     4.116    3.385   38.5   10.7    87   15.5 
2026-09-02 00:00 UT   13 16 10.6   +13 25 44     4.123    3.385   37.9   10.6    86   15.5 
2026-09-03 00:00 UT   13 17 16.3   +13 16 23     4.130    3.385   37.4   10.4    85   15.5 
2026-09-04 00:00 UT   13 18 22.3   +13 07 03     4.137    3.384   36.8   10.3    85   15.5 
2026-09-05 00:00 UT   13 19 28.6   +12 57 45     4.144    3.384   36.3   10.2    84   15.5 
2026-09-06 00:00 UT   13 20 35.2   +12 48 28     4.151    3.384   35.7   10.0    84   15.5 
2026-09-07 00:00 UT   13 21 42.1   +12 39 12     4.157    3.384   35.2    9.9    83   15.5 
2026-09-08 00:00 UT   13 22 49.2   +12 29 59     4.163    3.383   34.7    9.8    82   15.5 
2026-09-09 00:00 UT   13 23 56.6   +12 20 47     4.169    3.383   34.1    9.6    82   15.5 
2026-09-10 00:00 UT   13 25 04.2   +12 11 36     4.175    3.383   33.6    9.5    81   15.5 
2026-09-11 00:00 UT   13 26 12.1   +12 02 28     4.181    3.383   33.1    9.4    80   15.5 
2026-09-12 00:00 UT   13 27 20.3   +11 53 21     4.187    3.382   32.6    9.2    79   15.5 
2026-09-13 00:00 UT   13 28 28.7   +11 44 16     4.193    3.382   32.0    9.1    79   15.5 
2026-09-14 00:00 UT   13 29 37.3   +11 35 13     4.198    3.382   31.5    9.0    78   15.5 
2026-09-15 00:00 UT   13 30 46.2   +11 26 12     4.203    3.381   31.0    8.8    77   15.5 
2026-09-16 00:00 UT   13 31 55.3   +11 17 13     4.208    3.381   30.5    8.7    76   15.5 
2026-09-17 00:00 UT   13 33 04.7   +11 08 16     4.213    3.381   30.0    8.6    75   15.5 
2026-09-18 00:00 UT   13 34 14.2   +10 59 21     4.218    3.380   29.5    8.4    74   15.5 
2026-09-19 00:00 UT   13 35 24.0   +10 50 28     4.223    3.380   29.1    8.3    74   15.5 
2026-09-20 00:00 UT   13 36 34.0   +10 41 37     4.227    3.380   28.6    8.2    73   15.5 


    Terminology:
            
    delta:  distance between minor planet and earth in AU
    radius: distance between minor planet and sun in AU
    magn:   magnitude (brightness) estimate    
    ra:     right ascension in hours (24h = 360deg)
    dec:    declination in degrees
    elong:  elongation in degrees (angle sun-earth-minor planet)    
    phase:  phase angle in degrees (angle sun-minor planet-earth)        
    AU:     Astronomical Unit (mean distance between earth and sun: 149597870.7 km
    

Orbital elements provided by the MPC (Minor Planet Center).
Calculations by a modified version of AAPlus, a C# implementation of the AA+ project by PJ Naughter from the algorithms presented in the book "Astronomical Algorithms" by Jean Meeus.
NGC2000 dso catalog and star labels from VizieR as provided by the Strasbourg astronomical Data Center.
Tycho2 catalog from the ESO archive.